Location: Meanaryar
(48.4161°N, 4.7315°W)
Time: 15:43:54
(UTC+00:00)

Cosmos 1975 Rocket - Pass Details

Date: 18 September 2020
Orbit: 603 x 634 km, 82.5° (Epoch: 29 October)

Event Time Altitude Azimuth Distance (km) Brightness Sun altitude
Rises 19:04:55 0° 352° (N) 2,884 6.8 -7.5°
Reaches altitude 10° 19:07:10 10° 355° (N) 1,971 5.9 -7.9°
Maximum altitude 19:11:31 69° 79° (E) 653 3.0 -8.6°
Drops below altitude 10° 19:15:48 10° 163° (SSE) 1,946 5.3 -9.3°
Sets 19:18:00 0° 166° (SSE) 2,844 6.2 -9.6°
